Location: Feydey
(46.3431°N, 7.0106°E)
Time: 19:23:55
(UTC+00:00)

Cosmos 1328 - Pass Details

Date: 27 October 2021
Orbit: 529 x 552 km, 82.5° (Epoch: 03 December)

Event Time Altitude Azimuth Distance (km) Brightness Sun altitude
Rises 18:33:35 0° 328° (NNW) 2,738 7.9 -22.8°
Maximum altitude 18:38:17 10° 278° (W) 1,835 7.6 -23.6°
Drops below altitude 10° 18:38:23 10° 277° (W) 1,836 7.6 -23.6°
Sets 18:42:59 0° 228° (SW) 2,717 7.9 -24.4°
